Regional Weather Roundup
Issued by NWS

Home | Current Version | Previous Version | Graphics & Text | Print | Product List | Glossary On
Versions: 1 2 3 4 5 6 7 8 9 10 11 12 13 14 15 16 17 18 19 20 21 22 23 24 25 26 27
000
ASUS45 KBOI 292210
RWRID

IDAHO REGIONAL WEATHER ROUNDUP
NATIONAL WEATHER SERVICE BOISE ID
400 PM MDT SAT APR 29 2017

NOTE: "FAIR" INDICATES FEW OR NO CLOUDS BELOW 12000 FEET
WITH NO SIGNIFICANT WEATHER AND/OR OBSTRUCTIONS TO VISIBILITY

IDZ012-014-292300-
SOUTHWEST IDAHO


CITY           SKY/WX    TMP DP  RH WIND       PRES   REMARKS
BOISE          MOSUNNY   60  26  27 N10       30.20F
CALDWELL       MOSUNNY   60  33  36 NE6       30.20F
MOUNTAIN HOME  SUNNY     60  28  29 N7        30.19F
$$

IDZ016-017-292300-
SOUTHCENTRAL IDAHO


CITY           SKY/WX    TMP DP  RH WIND       PRES   REMARKS
BURLEY         MOSUNNY   57  25  29 W9        30.19F
JEROME         SUNNY     56  27  32 SW15G21   30.21F
TWIN FALLS     SUNNY     56  28  34 W8G17     30.21F
$$

IDZ019>023-292300-
SOUTHEAST IDAHO


CITY           SKY/WX    TMP DP  RH WIND       PRES   REMARKS
IDAHO FALLS    MOSUNNY   53  22  29 VRB3      30.19F
POCATELLO      MOSUNNY   55  29  36 CALM      30.21F
REXBURG        SUNNY     52  24  33 VRB7      30.17F
$$

IDZ006-010-011-018-031-032-292300-
CENTRAL IDAHO MOUNTAINS


CITY           SKY/WX    TMP DP  RH WIND       PRES   REMARKS
MCCALL         MOSUNNY   52  14  22 SW8       30.17S
HAILEY         MOSUNNY   52  28  40 SE12      30.19S
STANLEY          N/A     48  12  23 N7        30.18F
SALMON         MOSUNNY   57  27  30 N8        30.09F
CHALLIS        SUNNY     57  15  19 SE6       30.10F
$$

IDZ002-004-006-007-026-292300-
NORTHERN IDAHO


CITY           SKY/WX    TMP DP  RH WIND       PRES   REMARKS
LEWISTON       MOSUNNY   65  35  33 CALM      30.12F
LOWELL           N/A     68  31  25 CALM      30.14F
COEUR D`ALENE  CLOUDY    57  36  45 SW9       30.14F
MULLAN PASS    CLOUDY    37  29  72 VRB5      30.16F WCI  33
$$




USA.gov is the U.S. government's official web portal to all federal, state and local government web resources and services.